Time,TemperatureF,DewpointF,PressureIn,WindDirection,WindDirectionDegrees,WindSpeedMPH,WindSpeedGustMPH,Humidity,HourlyPrecipIn,Conditions,Clouds,dailyrainin,SoftwareType,DateUTC
2013-09-01 00:14:00,70.8,69.0,29.81,SSW,206,0.0,6.0,95,0.00,,,0.00,weatherlink.com 1.10,2013-09-01 04:14:00,
2013-09-01 00:29:00,70.9,70.0,29.81,South,171,1.0,7.0,95,0.00,,,0.00,weatherlink.com 1.10,2013-09-01 04:29:00,
2013-09-01 00:44:00,70.9,70.0,29.81,SW,223,0.0,6.0,95,0.00,,,0.00,weatherlink.com 1.10,2013-09-01 04:44:00,
2013-09-01 00:59:00,70.9,70.0,29.80,South,190,0.0,4.0,95,0.00,,,0.00,weatherlink.com 1.10,2013-09-01 04:59:00,
2013-09-01 01:14:00,71.1,70.0,29.80,SW,225,1.0,7.0,95,0.00,,,0.00,weatherlink.com 1.10,2013-09-01 05:14:00,
2013-09-01 01:29:00,71.2,70.0,29.79,SW,234,0.0,8.0,95,0.00,,,0.00,weatherlink.com 1.10,2013-09-01 05:29:00,
2013-09-01 01:44:00,71.2,70.0,29.79,SSW,209,0.0,7.0,95,0.00,,,0.00,weatherlink.com 1.10,2013-09-01 05:44:00,
2013-09-01 01:59:00,71.2,70.0,29.79,SW,215,2.0,5.0,95,0.00,,,0.00,weatherlink.com 1.10,2013-09-01 05:59:00,
2013-09-01 02:14:00,71.1,70.0,29.80,SW,215,1.0,4.0,95,0.00,,,0.00,weatherlink.com 1.10,2013-09-01 06:14:00,
2013-09-01 02:29:00,71.1,70.0,29.79,SSW,200,2.0,5.0,95,0.00,,,0.00,weatherlink.com 1.10,2013-09-01 06:29:00,
2013-09-01 02:44:00,71.0,70.0,29.79,SSW,206,1.0,4.0,95,0.00,,,0.00,weatherlink.com 1.10,2013-09-01 06:44:00,
2013-09-01 02:59:00,70.8,69.0,29.79,SSW,206,1.0,3.0,95,0.00,,,0.00,weatherlink.com 1.10,2013-09-01 06:59:00,
2013-09-01 03:14:00,70.7,69.0,29.79,SSW,206,0.0,1.0,95,0.00,,,0.00,weatherlink.com 1.10,2013-09-01 07:14:00,
2013-09-01 03:29:00,70.6,69.0,29.79,SSW,206,0.0,0.0,95,0.00,,,0.00,weatherlink.com 1.10,2013-09-01 07:29:00,
2013-09-01 03:44:00,70.6,69.0,29.80,SSW,206,0.0,2.0,95,0.00,,,0.00,weatherlink.com 1.10,2013-09-01 07:44:00,
2013-09-01 03:59:00,70.6,70.0,29.80,SSW,206,0.0,3.0,96,0.00,,,0.00,weatherlink.com 1.10,2013-09-01 07:59:00,
2013-09-01 04:14:00,70.5,69.0,29.78,SSW,206,0.0,1.0,96,0.00,,,0.00,weatherlink.com 1.10,2013-09-01 08:14:00,
2013-09-01 04:29:00,70.5,69.0,29.79,SSW,206,0.0,1.0,96,0.00,,,0.00,weatherlink.com 1.10,2013-09-01 08:29:00,
2013-09-01 04:44:00,70.5,69.0,29.79,SSW,206,0.0,1.0,96,0.00,,,0.00,weatherlink.com 1.10,2013-09-01 08:44:00,
2013-09-01 04:59:00,70.6,70.0,29.81,SSW,206,0.0,1.0,96,0.00,,,0.00,weatherlink.com 1.10,2013-09-01 08:59:00,
2013-09-01 05:14:00,70.7,70.0,29.81,SSW,206,0.0,1.0,96,0.00,,,0.00,weatherlink.com 1.10,2013-09-01 09:14:00,
2013-09-01 05:29:00,70.8,70.0,29.81,SSW,206,0.0,0.0,96,0.00,,,0.00,weatherlink.com 1.10,2013-09-01 09:29:00,
2013-09-01 05:44:00,71.1,70.0,29.81,SSW,206,0.0,2.0,96,0.00,,,0.00,weatherlink.com 1.10,2013-09-01 09:44:00,
2013-09-01 05:59:00,71.1,70.0,29.81,SSW,206,1.0,2.0,96,0.00,,,0.00,weatherlink.com 1.10,2013-09-01 09:59:00,
2013-09-01 06:14:00,71.1,70.0,29.81,SW,214,1.0,7.0,96,0.00,,,0.00,weatherlink.com 1.10,2013-09-01 10:14:00,
2013-09-01 06:29:00,71.0,70.0,29.81,South,180,0.0,7.0,96,0.00,,,0.00,weatherlink.com 1.10,2013-09-01 10:29:00,
2013-09-01 06:44:00,70.9,70.0,29.82,SSW,201,0.0,5.0,96,0.00,,,0.00,weatherlink.com 1.10,2013-09-01 10:44:00,
2013-09-01 07:00:00,70.9,70.0,29.82,SSW,198,0.0,3.0,96,0.00,,,0.00,weatherlink.com 1.10,2013-09-01 11:00:00,
2013-09-01 07:15:00,70.9,70.0,29.82,SSW,198,0.0,2.0,96,0.00,,,0.00,weatherlink.com 1.10,2013-09-01 11:15:00,
2013-09-01 07:30:00,71.1,70.0,29.82,SSW,198,0.0,4.0,96,0.00,,,0.00,weatherlink.com 1.10,2013-09-01 11:30:00,
2013-09-01 07:45:00,71.2,70.0,29.83,SW,225,0.0,4.0,96,0.00,,,0.00,weatherlink.com 1.10,2013-09-01 11:45:00,
2013-09-01 08:00:00,71.5,70.0,29.83,SW,225,0.0,3.0,96,0.00,,,0.00,weatherlink.com 1.10,2013-09-01 12:00:00,
2013-09-01 08:15:00,71.6,70.0,29.84,SSW,209,0.0,3.0,96,0.00,,,0.00,weatherlink.com 1.10,2013-09-01 12:15:00,
2013-09-01 08:30:00,71.8,71.0,29.83,SSW,209,0.0,3.0,96,0.00,,,0.00,weatherlink.com 1.10,2013-09-01 12:30:00,
2013-09-01 08:45:00,71.9,71.0,29.83,SSW,210,0.0,4.0,96,0.00,,,0.00,weatherlink.com 1.10,2013-09-01 12:45:00,
2013-09-01 09:00:00,71.9,71.0,29.84,SSW,210,0.0,3.0,96,0.00,,,0.00,weatherlink.com 1.10,2013-09-01 13:00:00,
2013-09-01 09:15:00,72.0,71.0,29.83,SW,221,2.0,5.0,96,0.00,,,0.00,weatherlink.com 1.10,2013-09-01 13:15:00,
2013-09-01 09:30:00,72.1,71.0,29.84,SSW,194,0.0,3.0,96,0.00,,,0.00,weatherlink.com 1.10,2013-09-01 13:30:00,
2013-09-01 09:45:00,72.1,71.0,29.84,SW,217,0.0,5.0,95,0.00,,,0.00,weatherlink.com 1.10,2013-09-01 13:45:00,
2013-09-01 10:00:00,72.1,71.0,29.83,South,190,1.0,5.0,95,0.00,,,0.00,weatherlink.com 1.10,2013-09-01 14:00:00,
2013-09-01 10:15:00,72.7,71.0,29.83,SW,218,2.0,5.0,95,0.00,,,0.00,weatherlink.com 1.10,2013-09-01 14:15:00,
2013-09-01 10:30:00,73.3,72.0,29.83,SSW,202,0.0,7.0,95,0.00,,,0.00,weatherlink.com 1.10,2013-09-01 14:30:00,
2013-09-01 10:45:00,73.3,72.0,29.84,SSW,200,1.0,7.0,94,0.00,,,0.00,weatherlink.com 1.10,2013-09-01 14:45:00,
2013-09-01 11:00:00,73.6,72.0,29.84,WSW,241,0.0,7.0,94,0.00,,,0.00,weatherlink.com 1.10,2013-09-01 15:00:00,
2013-09-01 11:15:00,74.1,72.0,29.84,SSW,204,3.0,5.0,94,0.00,,,0.00,weatherlink.com 1.10,2013-09-01 15:15:00,
2013-09-01 11:30:00,74.6,73.0,29.84,SSW,212,0.0,7.0,94,0.00,,,0.00,weatherlink.com 1.10,2013-09-01 15:30:00,
2013-09-01 11:45:00,75.6,73.0,29.84,SW,230,5.0,9.0,92,0.00,,,0.00,weatherlink.com 1.10,2013-09-01 15:45:00,
2013-09-01 12:00:00,76.2,73.0,29.83,SW,228,1.0,6.0,90,0.00,,,0.00,weatherlink.com 1.10,2013-09-01 16:00:00,
2013-09-01 12:15:00,76.2,73.0,29.82,SE,131,1.0,8.0,90,0.00,,,0.00,weatherlink.com 1.10,2013-09-01 16:15:00,
2013-09-01 12:30:00,75.7,73.0,29.82,SW,229,0.0,7.0,91,0.00,,,0.00,weatherlink.com 1.10,2013-09-01 16:30:00,
2013-09-01 12:45:00,75.9,73.0,29.82,South,183,0.0,11.0,91,0.00,,,0.00,weatherlink.com 1.10,2013-09-01 16:45:00,
2013-09-01 13:00:00,76.4,73.0,29.82,SSW,196,0.0,7.0,90,0.00,,,0.00,weatherlink.com 1.10,2013-09-01 17:00:00,
2013-09-01 13:15:00,76.3,73.0,29.82,SW,225,1.0,11.0,90,0.00,,,0.00,weatherlink.com 1.10,2013-09-01 17:15:00,
2013-09-01 13:30:00,75.9,73.0,29.82,South,190,1.0,7.0,90,0.00,,,0.00,weatherlink.com 1.10,2013-09-01 17:30:00,
2013-09-01 13:45:00,76.0,73.0,29.82,SSW,200,0.0,6.0,91,0.00,,,0.00,weatherlink.com 1.10,2013-09-01 17:45:00,
2013-09-01 14:00:00,75.9,73.0,29.82,SSW,205,0.0,7.0,91,0.00,,,0.00,weatherlink.com 1.10,2013-09-01 18:00:00,
2013-09-01 14:15:00,76.2,73.0,29.82,SSE,153,0.0,7.0,90,0.00,,,0.00,weatherlink.com 1.10,2013-09-01 18:15:00,
2013-09-01 14:30:00,76.0,73.0,29.82,SSW,205,0.0,7.0,90,0.00,,,0.00,weatherlink.com 1.10,2013-09-01 18:30:00,
2013-09-01 14:45:00,75.7,73.0,29.82,SSW,208,2.0,4.0,91,0.00,,,0.00,weatherlink.com 1.10,2013-09-01 18:45:00,
2013-09-01 15:00:00,75.6,73.0,29.82,SW,227,0.0,4.0,91,0.00,,,0.00,weatherlink.com 1.10,2013-09-01 19:00:00,
2013-09-01 15:15:00,74.8,72.0,29.82,South,180,0.0,8.0,91,0.00,,,0.00,weatherlink.com 1.10,2013-09-01 19:15:00,
2013-09-01 15:30:00,74.5,72.0,29.82,SSW,201,0.0,5.0,92,0.00,,,0.00,weatherlink.com 1.10,2013-09-01 19:30:00,
2013-09-01 15:45:00,74.4,72.0,29.82,SE,134,0.0,7.0,92,0.00,,,0.00,weatherlink.com 1.10,2013-09-01 19:45:00,
2013-09-01 16:00:00,74.4,72.0,29.81,South,182,0.0,5.0,93,0.00,,,0.00,weatherlink.com 1.10,2013-09-01 20:00:00,
2013-09-01 16:15:00,75.0,73.0,29.81,WSW,242,2.0,6.0,93,0.00,,,0.00,weatherlink.com 1.10,2013-09-01 20:15:00,
2013-09-01 16:30:00,75.0,72.0,29.81,SSW,210,1.0,7.0,91,0.00,,,0.00,weatherlink.com 1.10,2013-09-01 20:30:00,
2013-09-01 16:45:00,74.6,72.0,29.81,SW,221,0.0,6.0,92,0.00,,,0.00,weatherlink.com 1.10,2013-09-01 20:45:00,
2013-09-01 17:00:00,75.0,73.0,29.81,WSW,244,3.0,4.0,92,0.00,,,0.00,weatherlink.com 1.10,2013-09-01 21:00:00,
2013-09-01 17:15:00,74.8,72.0,29.81,SSW,210,0.0,3.0,92,0.00,,,0.00,weatherlink.com 1.10,2013-09-01 21:15:00,
2013-09-01 17:30:00,74.4,72.0,29.81,SW,222,0.0,2.0,92,0.00,,,0.00,weatherlink.com 1.10,2013-09-01 21:30:00,
2013-09-01 17:45:00,74.2,72.0,29.82,SW,216,0.0,4.0,93,0.00,,,0.00,weatherlink.com 1.10,2013-09-01 21:45:00,
2013-09-01 18:00:00,74.1,72.0,29.82,WSW,241,0.0,5.0,93,0.00,,,0.00,weatherlink.com 1.10,2013-09-01 22:00:00,
2013-09-01 18:15:00,74.0,72.0,29.82,WSW,243,0.0,4.0,93,0.00,,,0.00,weatherlink.com 1.10,2013-09-01 22:15:00,
2013-09-01 18:30:00,73.7,72.0,29.82,WSW,241,0.0,5.0,94,0.00,,,0.00,weatherlink.com 1.10,2013-09-01 22:30:00,
2013-09-01 18:45:00,73.6,72.0,29.81,SW,229,2.0,5.0,94,0.00,,,0.00,weatherlink.com 1.10,2013-09-01 22:45:00,
2013-09-01 19:00:00,73.4,72.0,29.81,South,183,1.0,3.0,94,0.00,,,0.00,weatherlink.com 1.10,2013-09-01 23:00:00,
2013-09-01 19:15:00,73.2,71.0,29.82,South,183,0.0,1.0,94,0.00,,,0.00,weatherlink.com 1.10,2013-09-01 23:15:00,
2013-09-01 19:30:00,73.0,72.0,29.81,South,183,0.0,3.0,95,0.00,,,0.00,weatherlink.com 1.10,2013-09-01 23:30:00,
2013-09-01 19:45:00,72.9,71.0,29.81,South,183,0.0,1.0,95,0.00,,,0.00,weatherlink.com 1.10,2013-09-01 23:45:00,
2013-09-01 20:00:00,72.8,71.0,29.82,South,183,0.0,2.0,95,0.00,,,0.00,weatherlink.com 1.10,2013-09-02 00:00:00,
2013-09-01 20:15:00,72.6,71.0,29.82,South,183,0.0,3.0,95,0.00,,,0.00,weatherlink.com 1.10,2013-09-02 00:15:00,
2013-09-01 20:30:00,72.5,71.0,29.82,South,183,0.0,2.0,95,0.00,,,0.00,weatherlink.com 1.10,2013-09-02 00:30:00,
2013-09-01 20:45:00,72.4,71.0,29.83,South,183,0.0,0.0,95,0.00,,,0.00,weatherlink.com 1.10,2013-09-02 00:45:00,
2013-09-01 21:00:00,72.3,71.0,29.83,South,183,0.0,0.0,95,0.00,,,0.00,weatherlink.com 1.10,2013-09-02 01:00:00,
2013-09-01 21:15:00,72.2,71.0,29.83,South,183,0.0,0.0,95,0.00,,,0.00,weatherlink.com 1.10,2013-09-02 01:15:00,
2013-09-01 21:30:00,72.2,71.0,29.82,South,183,0.0,1.0,95,0.00,,,0.00,weatherlink.com 1.10,2013-09-02 01:30:00,
2013-09-01 21:45:00,72.1,71.0,29.83,South,183,0.0,0.0,95,0.00,,,0.00,weatherlink.com 1.10,2013-09-02 01:45:00,
2013-09-01 22:00:00,72.1,71.0,29.83,South,183,0.0,1.0,95,0.00,,,0.00,weatherlink.com 1.10,2013-09-02 02:00:00,
2013-09-01 22:15:00,72.1,71.0,29.83,South,183,0.0,0.0,95,0.00,,,0.00,weatherlink.com 1.10,2013-09-02 02:15:00,
2013-09-01 22:30:00,72.1,71.0,29.83,South,183,0.0,3.0,95,0.00,,,0.00,weatherlink.com 1.10,2013-09-02 02:30:00,
2013-09-01 22:45:00,72.0,71.0,29.83,SE,128,0.0,7.0,96,0.00,,,0.00,weatherlink.com 1.10,2013-09-02 02:45:00,
2013-09-01 23:00:00,71.9,71.0,29.83,SE,140,0.0,2.0,96,0.00,,,0.00,weatherlink.com 1.10,2013-09-02 03:00:00,
2013-09-01 23:15:00,71.8,71.0,29.83,SSW,200,0.0,3.0,96,0.00,,,0.00,weatherlink.com 1.10,2013-09-02 03:15:00,
2013-09-01 23:30:00,72.0,71.0,29.82,SSW,200,0.0,0.0,96,0.00,,,0.00,weatherlink.com 1.10,2013-09-02 03:30:00,
2013-09-01 23:45:00,71.9,71.0,29.82,SSW,200,1.0,4.0,96,0.00,,,0.00,weatherlink.com 1.10,2013-09-02 03:45:00,